N125DZ KHND-K1G4

Flight info

Callsign N125DZ
Flight time 0h 22m
Altitude 15500
Route VFR
Aircraft C750/M-SBDE3FGHRWXY/S

Departure

Time 2026-04-30 02:57
Airport Henderson Executive Airport (KHND)

Arrival

Time 2026-04-30 03:19
Airport Grand Canyon West Airport (K1G4)
Time Latitude Longitude Altitude Speed Heading
2026-04-30 02:48 35.97847 -115.13738 2429 ft 0 kts 179°
2026-04-30 02:52 35.97845 -115.13738 2429 ft 1 kts 179°
2026-04-30 02:52 35.97828 -115.13737 2428 ft 5 kts 172°
2026-04-30 02:52 35.97815 -115.13726 2427 ft 4 kts 134°
2026-04-30 02:52 35.97773 -115.13690 2429 ft 8 kts 165°
2026-04-30 02:53 35.97744 -115.13655 2430 ft 6 kts 109°
2026-04-30 02:53 35.97678 -115.13639 2434 ft 16 kts 182°
2026-04-30 02:53 35.97536 -115.13640 2436 ft 20 kts 181°
2026-04-30 02:53 35.97411 -115.13643 2445 ft 16 kts 180°
2026-04-30 02:54 35.97313 -115.13643 2448 ft 12 kts 181°
2026-04-30 02:54 35.97238 -115.13645 2453 ft 9 kts 181°
2026-04-30 02:54 35.97187 -115.13645 2453 ft 6 kts 181°
2026-04-30 02:54 35.97138 -115.13646 2453 ft 9 kts 181°
2026-04-30 02:55 35.97050 -115.13648 2455 ft 16 kts 180°
2026-04-30 02:55 35.96915 -115.13649 2462 ft 23 kts 180°
2026-04-30 02:55 35.96736 -115.13651 2465 ft 25 kts 182°
2026-04-30 02:55 35.96576 -115.13652 2468 ft 22 kts 180°
2026-04-30 02:56 35.96421 -115.13655 2474 ft 21 kts 181°
2026-04-30 02:56 35.96368 -115.13607 2477 ft 10 kts 88°
2026-04-30 02:56 35.96404 -115.13554 2477 ft 11 kts
2026-04-30 02:56 35.96691 -115.13549 2464 ft 95 kts
2026-04-30 02:57 35.97590 -115.13530 2632 ft 130 kts
2026-04-30 02:57 35.98471 -115.13457 2852 ft 136 kts
2026-04-30 02:57 35.99394 -115.13045 3165 ft 153 kts 40°
2026-04-30 02:57 35.99990 -115.11936 3545 ft 158 kts 71°
2026-04-30 02:58 36.00141 -115.10561 3870 ft 167 kts 91°
2026-04-30 02:58 36.00096 -115.09146 4320 ft 167 kts 93°
2026-04-30 02:58 36.00026 -115.07719 4823 ft 165 kts 94°
2026-04-30 02:58 35.99925 -115.06315 5292 ft 165 kts 95°
2026-04-30 02:59 35.99864 -115.04840 5496 ft 180 kts 92°
2026-04-30 02:59 35.99839 -115.03194 5616 ft 210 kts 90°
2026-04-30 02:59 35.99865 -115.01257 6121 ft 234 kts 87°
2026-04-30 02:59 35.99939 -114.99174 6831 ft 249 kts 85°
2026-04-30 03:00 35.99942 -114.96942 7441 ft 271 kts 91°
2026-04-30 03:00 35.99812 -114.94546 8181 ft 289 kts 94°
2026-04-30 03:00 35.99677 -114.92060 9275 ft 292 kts 92°
2026-04-30 03:00 35.99629 -114.89522 10173 ft 300 kts 90°
2026-04-30 03:01 35.99622 -114.86849 10595 ft 323 kts 88°
2026-04-30 03:01 36.00035 -114.84013 10698 ft 351 kts 74°
2026-04-30 03:01 36.00786 -114.81053 11050 ft 364 kts 70°
2026-04-30 03:01 36.01576 -114.78048 11476 ft 377 kts 72°
2026-04-30 03:02 36.02306 -114.74823 11472 ft 402 kts 74°
2026-04-30 03:02 36.03038 -114.71431 11462 ft 413 kts 73°
2026-04-30 03:02 36.03842 -114.67996 11451 ft 418 kts 72°
2026-04-30 03:02 36.04680 -114.64546 11441 ft 419 kts 72°
2026-04-30 03:03 36.05487 -114.61068 11429 ft 422 kts 73°
2026-04-30 03:03 36.06805 -114.55252 11411 ft 425 kts 73°
2026-04-30 03:03 36.07570 -114.50494 11375 ft 423 kts 86°
2026-04-30 03:04 36.07667 -114.46849 11390 ft 424 kts 88°
2026-04-30 03:04 36.07787 -114.43202 11392 ft 425 kts 87°
2026-04-30 03:04 36.07923 -114.39551 11395 ft 425 kts 87°
2026-04-30 03:04 36.08035 -114.35931 11394 ft 413 kts 87°
2026-04-30 03:05 36.08133 -114.32387 11388 ft 416 kts 86°
2026-04-30 03:05 36.08242 -114.28810 11388 ft 417 kts 86°
2026-04-30 03:05 36.08355 -114.25278 11397 ft 416 kts 86°
2026-04-30 03:05 36.08463 -114.21695 11398 ft 417 kts 86°
2026-04-30 03:06 36.08566 -114.18115 11399 ft 417 kts 87°
2026-04-30 03:06 36.08671 -114.14526 11399 ft 418 kts 86°
2026-04-30 03:06 36.08711 -114.10940 11388 ft 419 kts 92°
2026-04-30 03:06 36.08146 -114.07414 11395 ft 418 kts 107°
2026-04-30 03:07 36.06930 -114.04157 11397 ft 419 kts 121°
2026-04-30 03:07 36.05126 -114.01340 11396 ft 418 kts 135°
2026-04-30 03:07 36.03042 -113.98833 11438 ft 417 kts 136°
2026-04-30 03:07 36.00961 -113.96332 11427 ft 416 kts 136°
2026-04-30 03:08 35.98987 -113.93937 11100 ft 380 kts 136°
2026-04-30 03:08 35.97163 -113.91732 10672 ft 353 kts 136°
2026-04-30 03:08 35.95483 -113.89674 10388 ft 326 kts 132°
2026-04-30 03:08 35.94169 -113.87534 10303 ft 298 kts 128°
2026-04-30 03:09 35.92910 -113.85731 10556 ft 263 kts 133°
2026-04-30 03:09 35.91584 -113.84243 10276 ft 256 kts 144°
2026-04-30 03:09 35.90076 -113.83037 10058 ft 257 kts 149°
2026-04-30 03:09 35.88694 -113.81824 10265 ft 228 kts 143°
2026-04-30 03:10 35.87394 -113.80950 10293 ft 211 kts 177°
2026-04-30 03:10 35.86138 -113.81629 10015 ft 200 kts 241°
2026-04-30 03:10 35.86190 -113.83177 9873 ft 193 kts 310°
2026-04-30 03:10 35.87418 -113.83634 9734 ft 197 kts
2026-04-30 03:11 35.88782 -113.83095 8905 ft 220 kts 14°
2026-04-30 03:11 35.90349 -113.82609 8007 ft 242 kts
2026-04-30 03:11 35.91953 -113.82346 7272 ft 207 kts
2026-04-30 03:11 35.93238 -113.82239 6703 ft 167 kts
2026-04-30 03:12 35.94358 -113.82179 6068 ft 159 kts
2026-04-30 03:12 35.95468 -113.82069 5471 ft 159 kts
2026-04-30 03:12 35.96514 -113.81940 5117 ft 143 kts
2026-04-30 03:12 35.97474 -113.81824 4851 ft 133 kts
2026-04-30 03:13 35.98358 -113.81724 4732 ft 119 kts
2026-04-30 03:13 35.99249 -113.81638 4885 ft 141 kts
2026-04-30 03:13 36.00299 -113.81591 5286 ft 160 kts
2026-04-30 03:13 36.01229 -113.80928 5971 ft 165 kts 65°
2026-04-30 03:14 36.00998 -113.79373 5878 ft 227 kts 126°
2026-04-30 03:14 35.99677 -113.78077 5989 ft 258 kts 154°
2026-04-30 03:14 35.98007 -113.77418 6694 ft 242 kts 166°
2026-04-30 03:14 35.96414 -113.77042 6832 ft 215 kts 185°
2026-04-30 03:15 35.95418 -113.77867 7650 ft 167 kts 258°
2026-04-30 03:15 35.95363 -113.78843 7555 ft 178 kts 269°
2026-04-30 03:15 35.95016 -113.80944 6622 ft 190 kts 261°
2026-04-30 03:15 35.95566 -113.82279 5959 ft 190 kts 343°
2026-04-30 03:16 35.96839 -113.81900 5169 ft 185 kts 13°
2026-04-30 03:16 35.97939 -113.81774 4762 ft 140 kts
2026-04-30 03:16 35.98810 -113.81680 4707 ft 131 kts
2026-04-30 03:16 35.99491 -113.81596 4846 ft 149 kts
2026-04-30 03:17 36.00379 -113.80968 5520 ft 156 kts 60°
2026-04-30 03:17 36.00312 -113.79580 5959 ft 183 kts 120°
2026-04-30 03:17 35.99179 -113.78624 5961 ft 224 kts 162°
2026-04-30 03:17 35.97551 -113.78456 5874 ft 249 kts 182°
2026-04-30 03:18 35.95800 -113.78730 6204 ft 239 kts 207°
2026-04-30 03:18 35.94893 -113.80716 6577 ft 203 kts 288°
2026-04-30 03:18 35.95486 -113.81529 6042 ft 189 kts 329°
2026-04-30 03:18 35.96767 -113.81886 5143 ft 184 kts 358°
2026-04-30 03:19 35.97876 -113.81775 4777 ft 139 kts
2026-04-30 03:19 35.98741 -113.81682 4708 ft 105 kts
2026-04-30 03:19 35.99253 -113.81623 4691 ft 38 kts
2026-04-30 03:19 35.99377 -113.81603 4687 ft 4 kts
2026-04-30 03:20 35.99342 -113.81618 4688 ft 23 kts 182°
2026-04-30 03:20 35.98883 -113.81667 4703 ft 115 kts 185°
2026-04-30 03:20 35.97903 -113.81777 4907 ft 149 kts 188°
2026-04-30 03:20 35.96838 -113.81989 5422 ft 168 kts 201°
2026-04-30 03:21 35.96045 -113.83047 5888 ft 184 kts 259°
2026-04-30 03:21 35.96398 -113.84468 6274 ft 180 kts 322°
2026-04-30 03:21 35.97619 -113.84918 6610 ft 193 kts 358°
2026-04-30 03:21 35.99039 -113.84807 6543 ft 219 kts
2026-04-30 03:22 36.00609 -113.84655 6343 ft 223 kts
2026-04-30 03:22 36.02098 -113.84529 6342 ft 204 kts
2026-04-30 03:22 36.03187 -113.83665 6638 ft 206 kts 68°
2026-04-30 03:22 36.02738 -113.81977 6539 ft 234 kts 149°
2026-04-30 03:23 36.01318 -113.81395 5388 ft 212 kts 175°
2026-04-30 03:23 35.99981 -113.81535 4819 ft 166 kts 187°
2026-04-30 03:23 35.98962 -113.81655 4704 ft 135 kts 187°
2026-04-30 03:23 35.98050 -113.81765 4849 ft 138 kts 188°
2026-04-30 03:24 35.97306 -113.82447 5197 ft 148 kts 248°
2026-04-30 03:24 35.97471 -113.83714 5473 ft 170 kts 311°
2026-04-30 03:24 35.98590 -113.84180 5936 ft 189 kts
2026-04-30 03:24 36.00018 -113.83754 5777 ft 239 kts
2026-04-30 03:25 36.01773 -113.83347 6038 ft 260 kts 11°
2026-04-30 03:25 36.03528 -113.82881 6414 ft 263 kts 11°
2026-04-30 03:25 36.05289 -113.82416 6663 ft 245 kts 11°
2026-04-30 03:25 36.06860 -113.81914 6492 ft 224 kts 19°
2026-04-30 03:26 36.07781 -113.80766 7000 ft 178 kts 71°
2026-04-30 03:26 36.07359 -113.79283 6586 ft 212 kts 144°
2026-04-30 03:26 36.05940 -113.79293 6311 ft 215 kts 215°
2026-04-30 03:26 36.04859 -113.80446 6199 ft 192 kts 217°
2026-04-30 03:27 36.03668 -113.81022 5780 ft 182 kts 196°
2026-04-30 03:27 36.02442 -113.81229 5382 ft 172 kts 185°
2026-04-30 03:27 36.01316 -113.81395 5137 ft 154 kts 188°
2026-04-30 03:27 36.00276 -113.81501 4886 ft 143 kts 187°
2026-04-30 03:28 35.99313 -113.81615 4729 ft 135 kts 187°
2026-04-30 03:28 35.98474 -113.81711 4719 ft 89 kts 186°
2026-04-30 03:28 35.98073 -113.81758 4735 ft 37 kts 185°
2026-04-30 03:28 35.97970 -113.81770 4739 ft 5 kts 185°
2026-04-30 03:29 35.97939 -113.81796 4737 ft 7 kts 250°
2026-04-30 03:29 35.97944 -113.81887 4736 ft 13 kts 276°
2026-04-30 03:29 35.97987 -113.81940 4734 ft 0 kts